EHI
1 4 9 9 6 4 1 1 2 3 3 2 1 1 2 2 2 1 0 0 0 0 0 0 0 0 0 0 0 0 0 0 0 0 0 0 0 0 0 0 0 0 0
3 5 9 10 7 4 2 1 1 2 2 1 0 0 1 1 2 2 1 1 0 0 0 0 0 0 0 0 0 0 0 0 0 0 0 0 0 0 0 0 0 0 0
5 5 8 10 8 5 4 2 1 1 1 0 0 0 0 0 1 1 1 1 1 0 0 0 0 0 0 0 0 0 0 0 0 0 0 0 0 0 0 0 0 0 0
5 5 6 9 8 6 5 4 2 0 0 0 0 0 0 0 0 0 1 1 1 0 0 0 0 0 0 0 0 0 0 0 0 0 0 0 0 0 0 0 0 0 0
4 4 5 7 8 7 7 6 3 1 0 0 0 0 0 0 0 0 0 0 0 0 0 0 0 0 0 0 0 0 0 0 0 0 0 0 0 0 0 0 0 0 0
3 4 5 7 8 8 8 6 3 1 0 0 0 0 0 0 0 0 0 0 0 0 0 0 0 0 0 0 0 0 0 0 0 0 0 0 1 1 1 0 0 0 0
4 4 5 8 9 8 6 4 3 1 1 1 0 0 0 0 0 0 0 0 0 0 0 0 0 0 0 0 0 0 0 0 0 0 0 0 1 2 1 0 0 0 0
5 5 5 7 7 5 4 3 3 3 3 2 1 0 0 0 0 0 0 0 0 0 0 0 0 0 1 0 0 0 0 0 0 0 0 0 1 2 1 0 0 0 0
6 5 5 4 4 4 3 3 3 3 3 2 1 0 0 0 0 0 0 0 0 0 0 0 0 0 0 0 0 0 0 0 0 0 0 0 1 2 2 1 0 0 0
6 5 4 3 3 3 3 3 2 2 2 1 0 0 0 0 0 0 0 0 0 0 0 0 0 0 0 0 0 0 0 0 0 0 0 0 1 2 3 2 1 1 1
4 4 3 3 3 3 3 1 1 1 1 0 0 0 0 0 0 0 0 0 0 0 0 0 0 0 0 0 0 0 0 0 0 0 0 0 1 2 3 3 3 2 2
1 2 3 3 3 3 3 1 0 0 0 0 0 0 0 0 0 0 0 0 0 0 0 0 0 0 0 0 0 0 0 0 0 0 0 0 1 2 3 3 3 3 4
0 1 1 3 3 3 3 2 1 0 0 0 0 0 0 0 0 0 0 0 0 0 0 0 0 0 0 0 0 0 0 0 0 0 0 0 1 2 3 3 3 4 4
0 0 1 2 3 3 3 2 1 0 0 0 0 0 0 0 0 0 0 0 0 0 0 0 0 0 0 0 0 0 0 0 0 0 0 0 1 2 3 3 3 3 4
0 0 0 1 2 3 3 2 1 0 0 0 0 0 0 0 0 0 0 0 0 0 0 0 0 0 0 0 0 0 0 0 0 0 0 0 1 2 3 3 3 3 3
0 0 0 0 1 2 2 1 0 0 0 0 0 0 0 0 0 0 0 0 0 0 0 0 0 0 0 0 0 0 0 0 0 0 0 0 0 1 2 3 3 3 3
0 0 0 0 1 1 1 0 0 0 0 0 0 0 0 0 0 0 0 0 0 0 0 0 0 0 0 0 0 0 0 0 0 0 0 0 0 0 1 2 3 3 4
0 0 0 0 0 0 0 0 0 0 0 0 0 0 0 0 0 0 0 0 0 0 0 0 0 0 0 0 0 0 0 0 0 0 0 0 0 0 0 1 2 3 4
1 1 1 0 0 0 0 0 0 0 0 0 0 0 0 0 0 0 0 0 0 0 0 0 0 0 0 0 0 0 0 0 0 0 0 0 0 0 0 0 1 1 2
1 1 1 0 0 0 0 0 0 0 0 0 0 0 0 0 0 0 0 0 0 0 0 0 0 0 0 0 0 0 0 0 0 0 0 0 0 0 0 0 0 0 1
0 0 0 0 0 0 0 0 0 0 0 0 0 0 0 0 0 0 0 0 0 0 0 0 0 0 0 0 0 0 0 0 0 0 0 0 0 0 0 0 0 0 0
0 0 0 0 0 0 0 0 0 0 0 0 0 0 0 0 0 0 0 0 0 0 0 0 0 0 0 0 0 0 0 0 0 0 0 0 0 0 0 0 0 0 0
0 0 0 0 0 0 0 0 0 0 0 0 0 0 0 0 0 0 0 0 0 0 0 0 0 0 0 0 0 0 0 0 0 0 0 0 0 0 0 0 0 0 0
0 0 0 0 0 0 0 0 0 0 0 0 0 0 0 0 0 0 0 0 0 0 0 0 0 0 0 0 0 0 0 0 0 0 0 0 0 0 0 0 0 0 0
0 0 0 0 0 0 0 0 0 0 0 0 0 0 0 0 0 0 0 0 0 0 0 0 0 0 0 0 0 0 0 0 0 0 0 0 0 0 0 0 0 0 0
0 0 0 0 0 0 0 0 0 0 0 0 0 0 0 0 0 0 0 0 0 0 0 0 0 0 0 0 0 0 0 0 0 0 0 0 0 0 0 0 0 0 0
Wind_Speed
4 4 5 6 6 7 7 7 8 8 8 8 8 8 8 9 9 8 9 9 9 9 9 10 10 10 11 11 12 12 12 12 12 13 13 12 12 12 12 11 11 10 15
3 4 5 6 6 7 7 7 7 8 7 7 8 7 7 8 8 8 8 8 9 9 9 9 9 10 10 10 10 10 10 10 10 10 10 10 11 11 12 12 12 9 14
5 5 5 7 7 7 7 7 7 7 7 7 7 7 7 7 7 8 8 8 8 8 8 9 9 9 9 9 9 8 8 8 6 6 6 4 7 11 11 12 12 13 13
6 6 6 8 7 8 8 7 7 7 7 6 6 7 7 7 7 7 7 7 8 8 8 8 8 8 8 8 8 7 7 6 5 4 3 4 5 10 10 11 11 12 12
7 6 7 9 9 9 8 8 8 8 7 7 6 6 6 6 6 6 6 7 7 8 8 8 8 7 7 7 7 6 5 5 5 4 4 4 5 9 10 10 11 11 11
6 6 7 9 9 9 9 8 8 7 7 7 7 6 6 6 6 7 7 6 6 7 7 6 6 6 6 6 6 5 5 5 4 2 4 4 4 8 9 10 10 10 11
6 6 6 9 9 9 9 9 8 7 7 7 7 6 6 6 6 6 6 6 6 6 5 5 6 6 6 5 5 4 5 5 2 3 3 4 5 9 9 9 10 10 10
7 6 6 8 9 9 8 9 8 7 7 7 7 6 6 6 5 6 6 6 6 5 4 4 5 5 5 4 4 4 4 4 3 2 3 4 6 8 8 8 9 9 9
8 7 6 5 6 7 7 7 8 8 7 7 7 6 6 5 5 5 5 5 5 5 4 4 4 4 3 3 3 3 4 4 3 1 4 3 6 7 8 8 7 8 8
8 8 7 6 6 4 4 5 6 6 7 7 7 6 5 4 4 4 4 4 5 5 4 3 3 3 2 2 1 2 3 3 1 2 2 3 7 6 7 7 7 7 8
8 7 7 7 7 6 4 4 4 4 5 5 5 5 4 2 2 3 4 4 4 4 3 3 2 2 1 1 1 1 2 1 1 1 2 5 6 6 6 7 6 6 7
8 7 7 7 6 6 5 3 2 2 2 3 3 3 2 2 2 3 4 3 3 2 2 1 0 1 1 1 2 2 1 0 0 1 3 5 6 6 5 6 6 6 6
6 7 7 6 6 6 4 3 2 2 2 2 3 3 3 2 2 2 2 2 1 1 1 1 1 1 1 1 1 1 1 0 1 1 3 6 5 5 5 5 5 5 6
7 8 7 6 6 6 5 3 3 2 2 2 3 3 3 2 2 1 1 1 1 1 1 1 1 1 1 1 1 1 1 1 1 1 3 6 5 5 4 4 5 5 6
7 7 7 7 6 5 4 4 3 3 2 2 2 3 3 2 2 2 1 1 2 2 1 1 1 1 1 1 1 0 1 1 1 2 2 5 5 4 4 4 4 5 5
7 7 7 7 7 6 5 4 3 3 2 2 2 3 4 2 2 2 2 2 2 2 2 2 2 2 1 1 1 1 0 1 1 2 3 3 4 4 3 3 3 4 5
6 7 7 7 6 6 6 5 3 3 3 3 2 3 3 3 3 2 2 2 2 2 3 2 2 2 2 1 1 2 1 0 1 2 3 3 2 3 3 3 3 3 4
6 6 6 7 6 6 5 5 3 3 3 3 3 3 4 4 4 3 2 2 2 2 2 2 2 2 1 1 1 1 1 1 0 1 2 3 2 2 2 3 3 3 3
6 6 6 7 7 6 6 4 4 3 3 3 3 3 3 4 4 3 2 2 2 2 2 2 2 1 1 1 1 1 1 1 1 0 1 2 2 2 2 3 3 3 2
6 6 6 7 7 6 4 4 3 3 3 3 3 3 4 3 4 3 2 3 2 2 2 2 2 2 1 1 1 1 1 1 1 0 0 1 2 2 3 3 2 2 3
7 7 6 7 7 6 4 4 4 3 3 3 3 4 4 4 4 3 2 3 2 2 2 2 2 1 1 1 1 1 2 1 1 1 0 1 1 1 2 3 2 2 2
6 6 6 6 6 5 4 3 3 3 2 2 3 3 4 4 4 3 3 2 2 2 2 2 2 1 1 1 0 0 1 1 2 2 1 1 1 1 1 2 3 3 2
5 5 6 6 6 6 6 3 3 3 2 3 3 3 4 4 4 4 3 2 2 2 2 2 1 2 2 2 1 1 1 2 1 1 2 2 2 1 1 1 2 3 3
4 4 5 6 6 6 6 4 4 3 3 4 3 3 4 3 4 4 3 3 2 2 2 3 2 2 2 2 2 2 2 1 1 1 1 1 2 1 1 1 1 2 3
4 4 4 5 6 6 6 5 4 4 3 3 4 4 4 3 3 4 3 3 3 2 3 3 3 2 2 2 2 2 2 2 2 1 2 1 1 1 1 1 1 1 2
4 4 4 5 5 6 6 6 5 5 5 5 5 5 4 3 3 4 4 3 3 3 3 3 3 3 3 3 2 2 2 2 2 2 2 2 2 2 2 2 2 2 2
Wind_Direction
46 70 73 69 76 77 74 73 77 75 71 71 75 75 74 73 71 71 72 74 72 71 71 70 73 74 74 74 73 73 72 71 74 73 71 70 72 73 72 71 76 77 81
50 78 77 70 76 76 75 71 70 69 68 68 71 75 75 75 73 71 72 73 73 72 72 73 73 72 72 74 73 73 76 75 75 76 76 70 69 70 69 67 75 87 86
57 68 64 59 68 73 73 69 68 66 65 66 70 74 73 72 73 71 68 70 72 72 72 72 73 73 73 71 72 74 75 74 69 77 80 81 78 74 74 74 78 86 88
60 62 54 49 61 70 69 67 68 66 62 65 69 71 69 69 71 71 67 68 70 71 73 73 72 74 74 74 75 73 68 57 46 55 69 77 85 85 83 83 85 88 89
59 59 53 47 55 61 65 67 64 65 62 61 65 68 69 68 68 70 69 67 71 72 74 75 75 74 74 76 76 69 54 32 26 46 68 68 75 92 91 89 87 89 91
59 59 55 46 50 56 57 60 63 63 62 58 57 65 67 66 68 65 65 68 73 75 75 77 78 76 75 77 75 63 41 20 17 44 68 76 78 96 96 95 92 91 93
52 56 59 45 48 51 54 53 54 59 60 57 54 58 62 65 65 66 63 63 68 78 79 80 81 78 79 78 72 56 30 9 19 50 68 73 84 100 99 98 98 97 95
46 51 55 44 46 48 51 49 47 51 57 57 55 54 55 58 65 66 64 62 61 69 78 84 81 83 81 78 69 42 18 0 32 63 78 82 93 102 106 102 100 99 101
39 42 42 34 36 42 45 47 48 48 51 54 53 51 47 50 59 66 65 66 64 62 69 78 85 87 89 78 63 32 6 359 3 30 83 85 97 105 109 107 106 104 102
34 32 29 21 19 20 31 43 48 47 49 51 53 50 50 51 54 61 62 67 65 61 62 69 81 90 94 89 60 356 340 344 12 42 71 94 102 109 115 116 112 110 109
27 22 21 15 10 4 9 31 48 51 55 55 53 48 53 44 45 52 56 61 62 66 69 68 68 93 100 120 240 276 313 342 43 75 76 98 104 111 118 124 122 119 117
17 14 14 12 8 3 5 16 28 42 51 46 46 33 21 24 32 44 54 45 46 55 65 60 41 173 199 215 237 232 251 200 77 97 97 104 107 114 121 127 126 125 128
14 13 12 7 5 7 4 3 9 18 28 29 39 25 17 28 36 40 41 36 35 43 16 336 251 253 238 215 190 181 206 186 112 95 105 111 111 118 125 132 135 133 134
16 14 8 4 4 3 3 358 5 15 20 20 17 24 23 19 22 13 15 351 351 339 321 283 280 277 281 258 217 186 184 144 109 98 103 111 113 122 132 142 143 142 140
19 10 7 2 3 360 2 358 6 6 17 15 12 12 19 17 8 355 359 357 347 341 330 308 303 305 302 301 308 226 170 144 123 117 110 115 114 119 127 140 151 149 146
16 9 6 3 4 3 4 1 358 356 9 17 12 9 11 12 5 355 352 355 345 335 328 327 332 331 331 337 344 354 48 133 133 126 124 123 117 118 128 140 150 154 154
11 10 5 1 3 7 4 359 359 355 11 15 4 5 9 8 4 353 353 352 343 339 340 343 343 348 348 356 359 340 348 47 123 138 134 131 127 124 129 146 151 153 159
12 12 4 3 2 7 5 357 354 356 11 10 2 3 9 6 2 359 357 345 340 341 343 342 345 347 343 351 345 329 344 6 51 134 133 131 135 142 149 148 145 148 161
15 13 5 5 3 7 7 0 357 359 8 2 359 1 5 3 359 356 351 338 337 339 339 329 335 340 344 346 331 334 345 340 341 55 109 127 134 140 145 157 154 151 155
16 15 11 8 6 6 9 5 1 2 359 356 355 360 2 356 351 350 348 336 343 344 334 332 327 339 338 348 337 335 336 311 323 302 148 127 135 144 150 148 157 172 161
18 14 11 9 5 5 6 5 354 350 342 346 352 357 357 347 343 346 344 341 341 337 321 322 332 341 319 348 4 335 308 280 255 254 185 141 141 147 148 144 143 145 164
16 8 7 7 2 3 354 349 335 329 325 338 346 344 346 342 337 337 341 335 332 325 323 327 333 317 287 298 238 257 284 283 265 233 209 198 190 171 153 150 145 149 143
13 7 359 358 359 356 350 350 349 342 345 350 346 339 337 335 333 330 328 329 326 324 302 297 296 288 272 273 267 208 201 226 296 258 221 209 192 184 184 167 161 163 160
5 2 358 357 357 357 353 352 351 348 339 329 325 320 321 328 329 327 327 327 317 309 301 289 284 276 270 267 281 276 268 218 200 270 277 232 212 209 201 183 165 165 160
1 358 354 355 356 355 353 349 346 340 328 322 322 320 321 319 324 325 323 322 320 310 301 290 278 267 261 256 258 280 286 283 246 210 247 264 264 248 226 218 196 182 171
1 356 355 355 351 350 349 347 344 339 335 332 330 326 322 316 314 317 313 312 307 302 296 293 276 263 257 257 259 257 254 240 241 229 237 248 248 246 235 229 209 189 179